Theta_e
310 309 307 308 308 306 305 297 291 311 312 297 297 296 302 303 304 307 303 302 300 297 296 294 295 296 298 302 302 294 294 290 286 289 294 297 292 290 290 285 284 283 280 282
307 307 308 308 308 307 302 294 294 308 311 294 296 300 302 305 302 302 301 299 299 299 295 291 295 296 301 302 301 296 295 287 281 281 289 292 291 291 293 290 290 288 286 285
307 307 308 308 307 306 303 295 293 302 305 302 297 298 299 299 305 302 301 298 298 295 293 293 293 294 299 302 301 304 298 287 283 278 283 288 286 289 290 288 283 287 287 288
307 307 308 308 307 306 303 295 297 299 294 298 297 297 298 298 297 301 299 295 296 294 289 290 289 292 294 300 302 296 291 284 286 288 290 290 288 288 288 286 289 284 285 288
306 307 307 307 307 306 302 296 297 300 297 300 297 295 294 296 296 296 294 293 294 293 289 289 287 289 289 290 294 290 290 283 285 284 289 288 287 288 288 288 289 288 288 288
305 306 306 306 307 305 300 302 303 297 296 296 296 295 294 296 295 296 297 295 293 292 292 293 292 291 292 291 291 288 287 285 281 279 286 285 280 284 286 288 289 288 284 288
305 306 306 306 307 306 302 303 302 295 290 295 294 296 297 296 295 293 296 295 292 296 297 293 291 288 290 291 290 291 286 283 281 279 280 274 284 292 292 291 294 294 294 295
305 306 307 306 307 306 301 302 302 298 288 293 295 296 296 294 295 294 294 296 297 296 291 285 283 284 286 288 289 289 289 283 282 278 278 282 287 293 292 289 289 296 293 294
305 306 306 307 307 306 297 301 305 300 294 291 295 296 295 289 290 292 293 297 297 294 288 285 280 279 285 287 288 291 291 290 282 284 276 274 285 295 299 295 283 295 296 293
305 306 306 306 306 306 300 299 305 300 293 294 295 293 293 294 291 288 290 292 292 292 284 280 280 281 288 281 283 285 285 286 283 284 282 284 291 296 299 281 282 294 296 294
305 306 306 306 306 306 302 297 302 302 296 294 298 298 296 296 291 286 290 289 290 287 280 281 281 281 282 284 290 290 287 285 283 286 282 280 296 295 287 290 293 296 296 294
305 305 306 306 306 307 304 294 304 304 298 296 298 299 301 300 298 292 290 290 290 290 284 285 287 286 282 281 277 293 283 286 281 283 282 289 295 295 296 295 294 295 294 295
304 305 305 305 305 306 303 297 300 297 291 290 292 292 298 301 301 301 291 290 294 294 294 290 285 281 283 276 280 283 287 291 287 287 290 293 295 296 297 296 297 296 296 296
304 305 305 306 306 306 306 298 298 296 292 288 289 299 296 303 300 299 297 295 296 295 294 290 288 285 286 281 282 282 285 287 285 286 288 292 295 297 297 299 298 297 297 295
304 305 305 306 306 306 303 302 301 302 296 288 287 292 296 298 300 300 298 295 293 290 288 286 286 284 283 283 283 281 286 284 281 281 288 290 291 296 297 295 294 294 293 294
305 305 306 306 306 305 299 294 302 304 303 293 285 291 293 298 300 298 296 296 296 292 287 289 288 289 286 282 278 285 288 292 295 290 294 295 295 297 297 293 294 295 293 292
306 306 306 306 305 296 295 295 300 305 303 293 286 286 298 301 298 299 298 297 291 291 291 290 289 289 290 287 282 286 289 293 293 293 294 292 294 291 294 294 294 294 292 292
305 305 305 306 305 302 292 301 304 303 296 294 285 287 292 300 295 293 297 293 292 290 290 290 287 287 287 283 286 288 293 293 295 295 297 296 294 293 293 293 292 290 290 290
305 306 306 302 299 296 299 307 304 302 296 288 288 286 285 298 295 295 293 294 287 293 288 289 290 287 283 285 287 290 294 294 294 296 295 292 292 293 292 291 289 288 288 288
305 301 297 292 296 305 303 297 293 292 292 292 286 289 285 293 290 286 290 290 286 284 287 291 286 285 289 290 291 292 294 297 295 293 290 291 290 290 289 289 289 289 288 287
299 293 291 297 302 296 292 288 287 288 286 289 289 289 285 296 290 289 290 285 286 282 282 285 286 284 288 297 295 294 298 295 293 293 290 289 290 290 289 289 290 289 288 286
296 296 298 297 293 290 286 284 287 286 282 286 285 286 287 293 293 286 290 286 287 281 289 286 284 291 296 296 295 293 294 294 293 293 291 291 291 290 289 289 289 289 288 288
298 294 290 289 287 280 281 280 283 285 286 289 288 285 290 289 290 286 285 283 282 290 286 284 288 292 296 293 293 293 293 292 291 291 291 291 290 290 289 289 291 289 287 287
292 288 283 284 282 284 285 286 289 293 293 292 291 288 287 285 284 282 279 283 285 283 282 285 287 291 294 294 294 293 290 290 290 290 290 290 290 289 289 290 291 288 286 286
289 289 282 285 289 290 289 291 292 294 294 293 291 290 288 284 285 285 286 285 283 284 285 287 290 291 293 292 291 290 290 289 289 290 290 290 290 288 288 289 290 289 287 285
290 289 285 286 288 289 289 293 293 295 294 294 292 286 284 284 284 285 284 285 284 285 288 290 291 292 292 290 292 292 292 290 289 289 290 290 290 288 288 289 290 288 286 285
289 285 291 289 289 289 291 294 295 295 291 288 289 285 284 287 284 285 288 285 288 290 288 292 292 289 290 292 293 293 292 291 291 291 291 290 290 290 287 286 287 289 287 287
Wind_Speed
17 17 21 18 18 21 8 4 4 4 4 4 3 3 5 2 3 4 3 5 2 2 2 4 4 5 3 5 2 5 2 5 1 3 6 3 2 3 3 4 4 1 5 8
18 17 17 16 14 14 6 6 5 4 0 3 3 4 3 2 3 1 6 3 3 3 3 6 5 5 2 6 5 3 4 2 3 5 6 6 6 3 5 4 3 5 4 5
16 16 15 14 13 12 6 3 5 3 1 2 1 2 4 4 2 3 2 4 5 5 5 6 5 4 5 3 4 9 7 3 6 7 3 3 2 0 2 5 3 3 8 6
16 14 15 15 14 13 3 3 3 1 3 2 2 3 4 5 5 4 1 5 3 5 4 4 4 4 4 7 5 6 5 4 2 2 2 3 3 6 6 7 6 8 2 9
16 14 13 14 12 16 2 3 3 4 4 4 4 5 1 5 5 4 3 6 4 6 6 2 5 5 2 3 5 4 4 2 2 3 4 2 4 8 8 7 8 10 14 15
16 15 14 12 10 9 2 3 2 1 4 4 1 4 8 2 6 7 4 10 7 10 4 5 6 2 3 4 7 3 4 6 4 4 4 5 7 7 7 6 6 5 6 6
17 16 14 11 8 5 1 3 3 2 3 3 3 3 15 2 3 7 4 6 6 2 1 2 5 3 2 3 3 5 6 5 3 2 3 2 5 6 6 6 3 3 3 5
17 17 14 11 6 4 1 3 3 2 3 3 5 10 2 6 11 8 8 5 3 3 5 4 4 4 2 4 5 5 6 5 4 4 3 6 3 2 3 2 2 2 2 2
17 17 14 13 5 4 0 3 2 2 1 1 6 5 4 2 2 4 4 4 4 6 4 4 3 3 1 3 5 2 4 4 5 4 3 6 5 2 3 1 5 2 3 3
17 15 11 11 8 7 2 3 2 1 1 3 4 3 3 3 3 4 2 3 4 4 3 3 2 2 2 1 4 5 4 1 6 5 5 6 4 3 1 4 6 3 3 3
16 14 10 10 8 8 3 4 3 3 1 4 3 4 4 4 3 3 2 4 4 4 4 3 2 1 2 2 2 3 5 6 4 4 4 7 3 3 2 6 3 4 4 4
14 13 11 11 10 9 3 2 3 2 1 3 2 4 5 4 1 4 3 4 2 3 5 1 2 1 3 1 2 2 3 6 5 8 7 5 4 6 6 3 4 5 5 6
13 12 11 9 9 9 3 1 3 3 2 4 3 4 3 3 5 3 4 2 2 3 1 3 2 1 2 1 4 2 3 1 3 2 3 5 6 3 4 5 7 7 7 8
12 11 11 11 10 7 6 1 1 1 0 2 5 3 5 1 2 4 4 6 5 5 4 3 2 1 3 3 3 3 5 3 3 5 6 6 6 6 5 6 6 7 8 7
12 11 11 10 8 7 3 2 2 1 1 2 5 6 3 7 5 8 8 7 5 3 3 3 2 1 1 2 1 4 5 7 5 6 8 4 7 7 3 6 7 7 7 5
11 10 10 11 9 9 3 1 2 1 2 2 4 4 4 6 9 9 9 5 4 3 3 2 1 1 1 1 4 7 5 4 5 3 4 7 8 7 4 4 5 4 5 4
12 10 9 8 6 2 0 2 3 6 1 1 4 4 3 7 4 3 3 4 3 3 2 2 2 1 3 3 4 5 6 5 8 7 3 4 3 4 6 2 5 5 4 2
12 11 7 10 1 3 3 2 3 1 3 2 2 3 2 5 2 3 1 2 2 3 2 1 2 1 2 6 9 7 9 10 8 4 2 1 4 2 4 5 2 2 3 4
12 10 8 2 2 1 1 4 5 1 1 0 1 2 1 3 3 3 2 2 2 1 1 2 2 2 6 7 6 6 8 4 4 4 5 0 2 3 4 3 3 3 4 5
9 3 2 2 2 10 5 3 2 2 2 1 1 2 2 3 2 1 2 1 2 1 2 3 2 5 8 8 8 7 6 5 6 3 3 1 1 3 2 3 2 1 3 5
2 3 2 2 7 2 3 2 2 0 1 2 2 3 2 1 2 3 2 2 2 1 2 2 3 3 4 6 4 6 4 6 5 5 4 4 5 3 2 0 1 1 3 5
1 1 1 2 2 1 1 1 1 3 3 3 3 4 5 1 2 3 1 2 1 3 4 3 3 1 4 5 6 8 8 7 6 5 6 5 5 4 2 1 1 1 5 8
1 1 1 1 0 1 2 2 2 3 3 3 3 2 2 3 4 3 2 3 4 1 3 3 1 1 3 6 8 8 6 7 7 7 5 4 5 5 5 5 3 6 9 9
1 1 3 2 3 4 2 2 1 2 1 2 3 3 2 0 2 2 3 4 1 2 4 1 1 4 1 5 4 7 6 7 7 6 6 6 6 4 7 7 7 8 9 9
1 2 3 4 4 4 6 6 4 2 1 2 3 2 1 1 2 1 0 2 4 4 0 2 2 3 8 7 5 6 6 5 6 4 5 6 5 6 7 6 7 8 8 8
2 2 3 4 4 3 4 1 1 0 2 2 2 2 1 1 1 3 4 3 1 2 2 2 4 6 6 6 5 6 5 5 5 5 4 6 5 8 7 6 5 6 9 8
2 4 3 5 5 4 3 2 2 1 3 1 0 1 1 2 1 3 1 2 1 2 1 3 5 7 6 6 6 6 5 5 4 5 5 7 6 5 7 7 6 3 8 8
Wind_Direction
312 322 326 322 328 335 331 330 309 322 193 102 181 204 213 274 9 333 301 96 109 125 53 81 100 130 105 15 42 78 50 115 182 246 324 249 110 105 112 144 216 135 141 268
318 319 319 322 336 350 317 309 270 293 25 208 210 264 233 266 166 12 320 76 62 65 116 100 103 106 84 136 35 161 169 33 76 355 347 3 76 34 89 105 91 208 201 240
329 332 333 327 334 336 317 302 306 313 188 213 267 281 248 183 214 169 4 25 63 69 45 25 110 94 36 48 101 86 100 129 160 190 165 172 204 198 165 155 153 211 232 291
332 337 334 335 323 329 288 230 262 125 281 225 285 256 285 192 166 140 146 18 47 133 101 66 85 58 56 35 38 45 87 136 128 192 193 189 228 246 218 207 217 212 201 241
331 327 329 332 333 333 230 285 338 336 285 295 348 327 284 230 123 25 68 105 48 87 107 121 149 131 129 163 34 71 10 124 66 304 284 349 262 263 262 236 235 245 248 266
335 326 327 333 340 351 328 319 325 348 290 315 268 345 318 126 123 42 87 134 95 74 135 135 155 125 142 141 134 114 104 129 106 264 5 343 296 238 208 232 222 219 238 231
333 328 320 326 336 8 265 283 309 323 305 350 347 0 299 69 42 112 50 71 91 181 83 65 61 90 193 163 165 129 129 113 108 202 36 237 240 284 246 239 59 35 85 68
332 326 325 328 327 342 304 299 286 313 308 314 344 343 102 40 67 78 74 34 101 129 67 66 33 353 107 206 196 165 134 121 122 149 200 291 303 44 8 45 253 212 221 309
333 329 335 341 341 346 67 270 301 306 316 48 312 321 14 52 66 52 51 7 16 63 77 72 115 196 292 141 110 131 103 110 121 168 193 221 231 211 289 113 266 41 348 281
333 325 338 344 353 357 57 293 338 312 353 300 5 7 353 356 41 87 62 20 13 41 77 80 135 263 308 179 139 150 128 67 201 215 233 280 275 310 318 109 240 240 231 252
338 336 341 340 343 346 29 279 317 335 195 285 348 344 20 4 40 114 234 63 359 41 67 110 216 108 282 357 158 181 162 170 200 190 209 254 299 15 179 216 266 254 277 255
337 338 351 358 360 6 73 329 325 331 276 269 303 266 230 207 226 130 26 156 109 175 90 107 92 53 58 86 270 50 179 184 180 180 214 220 237 216 247 172 220 253 238 258
333 337 340 338 344 1 47 293 317 16 12 314 352 284 332 197 223 165 115 313 166 65 119 130 138 74 92 174 248 306 326 92 230 116 271 251 270 232 228 222 229 249 247 251
328 329 329 328 333 348 6 349 294 85 10 326 286 333 307 248 195 172 146 143 58 99 55 74 102 133 135 228 244 190 213 352 219 262 289 292 272 219 250 259 255 271 271 261
321 321 325 338 347 349 327 219 246 268 321 305 285 307 294 304 155 126 111 102 98 80 75 90 180 191 95 307 341 247 192 206 172 232 234 192 240 251 266 270 266 284 274 285
321 328 336 331 351 359 2 11 41 349 205 326 321 288 317 14 74 86 88 89 68 67 101 84 124 228 114 247 246 256 232 238 191 240 269 218 253 272 265 285 294 39 77 51
334 313 306 322 332 57 172 323 297 334 136 64 314 337 8 116 107 75 63 43 99 108 124 159 142 255 181 232 253 242 256 275 292 286 258 271 275 280 327 16 71 88 88 57
318 323 319 321 249 330 348 311 257 341 65 45 356 289 335 359 114 104 35 69 49 31 106 111 163 256 215 254 244 280 286 283 282 232 178 277 326 9 41 56 76 65 356 332
313 326 322 10 25 204 310 114 95 44 117 269 213 287 318 3 31 88 74 77 88 86 150 224 193 188 228 233 255 268 265 227 215 228 255 346 44 81 70 90 60 25 346 333
319 346 352 23 344 330 346 4 28 21 354 55 276 66 268 150 117 52 84 321 146 171 215 140 220 257 256 254 231 233 286 337 23 348 109 73 85 92 90 92 57 42 324 318
22 26 24 295 314 10 23 5 344 57 282 210 240 201 252 192 137 114 192 157 153 241 219 203 228 258 266 299 260 183 152 86 68 84 87 76 114 136 143 336 91 359 320 326
15 40 290 322 21 36 330 281 250 220 249 203 180 214 197 332 96 104 152 120 126 251 149 229 248 312 308 23 64 71 88 100 82 81 109 108 112 95 71 286 161 349 356 350
357 352 1 359 86 318 245 245 209 243 218 200 178 68 101 27 47 55 85 198 226 232 222 241 310 184 317 81 97 84 74 73 71 78 90 99 91 64 16 346 115 47 7 355
298 309 301 217 228 247 239 245 296 298 308 101 102 67 85 99 74 140 132 229 230 262 224 186 204 252 148 110 92 98 73 75 73 62 55 37 82 39 14 13 75 44 7 357
297 293 273 235 223 224 251 236 276 260 118 86 63 54 88 360 123 199 143 230 236 220 312 159 236 169 124 108 104 101 89 86 68 63 42 22 90 40 21 20 90 46 17 11
277 245 282 280 284 344 334 202 204 182 106 92 105 125 125 188 183 208 217 242 234 121 226 179 141 114 112 129 120 105 109 105 88 71 52 28 75 46 32 28 76 54 20 20
261 262 241 254 272 263 248 302 349 89 73 16 131 197 220 111 214 235 235 269 200 219 113 104 125 136 153 124 114 106 110 108 105 75 56 35 45 73 31 29 28 89 41 8